Flag for China Weather past 2 weeks in Chengdu, China

Now
66 °F

Fog.


Feels Like: 66 °F
Forecast: 64 / 78 °F
Wind: 3 mph from Southwest

Location: Chengdu Airport


UV Index: 5 (Moderate)

Visibility: 2 mi


Pressure: 29.68 "Hg

Humidity: 88%

Dew point: 63 °F

Location of ChengduLocation

Historic Weather in Chengdu

°F

Chengdu temperature yesterday

Maximum temperature yesterday: 81 °F (at 3:00 PM)
Minimum temperature yesterday: 66 °F (at 7:00 AM)
Average temperature yesterday: 72 °F

Past Weeks' High & Low Weather Summary

 TemperatureHumidityPressure
High84 °F (Apr 13, 3:00 PM)94% (Apr 5, 9:00 AM)30.18 "Hg (Apr 5, 9:00 AM)
Low52 °F (Apr 6, 5:00 AM)30% (Apr 12, 4:00 PM)29.62 "Hg (Apr 15, 5:00 PM)
Average68 °F70%29.89 "Hg
* Reported Apr 3 8:00 AM — Apr 18 8:00 AM, Chengdu, Weather by CustomWeather, © 2014

Note: Actual official high and low records may vary slightly from our data, if they occured in-between our weather recording intervals... More about our weather records

Advertising

Historic Weather Conditions — Data for Previous 24 hours

 ConditionsComfort  
Time TempWeatherWind HumidityBarometerVisibility
8:00 AM
Apr 18
66 °FFog.3 mph88%29.68 "Hg2 mi
7:00 AM66 °FFog.No wind88%29.65 "Hg3 mi
6:00 AM66 °FSprinkles. Fog.No wind88%29.65 "Hg3 mi
5:00 AM64 °FPassing clouds.1 mph94%29.62 "Hg4 mi
4:00 AM66 °FPassing clouds.No wind88%29.65 "Hg4 mi
3:00 AM66 °FPassing clouds.3 mph88%29.68 "Hg4 mi
2:00 AM66 °FSprinkles. Passing clouds.3 mph88%29.68 "Hg5 mi
1:00 AM64 °FThunderstorms. Passing clouds.1 mph94%29.71 "Hg4 mi
12:00 AM68 °FThunderstorms. Passing clouds.3 mph78%29.71 "HgN/A
11:00 PM
Apr 17
72 °FPassing clouds.10 mph61%29.68 "HgN/A
10:00 PM72 °FPassing clouds.10 mph61%29.71 "HgN/A
9:00 PM72 °FPassing clouds.10 mph61%29.71 "HgN/A
8:00 PM72 °FPassing clouds.8 mph61%29.68 "HgN/A
7:00 PM72 °FSunny.10 mph65%29.65 "Hg10 mi
6:00 PM75 °FPassing clouds.13 mph61%29.62 "HgN/A
5:00 PM79 °FScattered clouds.10 mph54%29.62 "HgN/A
4:00 PM81 °FScattered clouds.8 mph51%29.62 "HgN/A
3:00 PM81 °FScattered clouds.6 mph51%29.62 "Hg5 mi
2:00 PM79 °FScattered clouds.6 mph58%29.65 "Hg4 mi
1:00 PM75 °FScattered clouds.6 mph65%29.68 "HgN/A
12:00 PM73 °FScattered clouds.6 mph69%29.71 "Hg4 mi
11:00 AM72 °FFog.3 mph73%29.74 "Hg3 mi
10:00 AM68 °FSprinkles. Fog.6 mph88%29.74 "Hg2 mi
9:00 AM66 °FThunderstorms. Fog.6 mph94%29.74 "Hg2 mi
Weather by CustomWeather, © 2014

See weather overview